Track COSMOS 84 now! 10-day predictions COSMOS 84 is classified as:
1 01574U 65070E 21110.89430616 -.00000091 00000-0 22872-5 0 9994 2 01574 56.0559 347.2466 0061979 274.8534 187.7447 12.37007929513395